Regional Weather Roundup
Issued by NWS

Home | Current Version | Previous Version | Graphics & Text | Print | Product List | Glossary On
Versions: 1 2 3 4 5 6 7 8 9 10 11 12 13 14 15 16 17 18 19 20 21 22 23 24 25 26 27 28 29 30 31 32 33 34 35 36 37 38 39 40 41 42 43 44 45 46 47 48 49 50
000
ASUS43 KMKX 020711
RWRWI

WISCONSIN REGIONAL WEATHER ROUNDUP
NATIONAL WEATHER SERVICE MILWAUKEE/SULLIVAN WI
200 AM CDT WED SEP 02 2015

NOTE: "FAIR" INDICATES FEW OR NO CLOUDS BELOW 12,000 FEET WITH NO
SIGNIFICANT WEATHER AND/OR OBSTRUCTIONS TO VISIBILITY.

WIZ001-002-006>008-014>016-023>028-020800-
NORTHWEST WISCONSIN

CITY           SKY/WX    TMP DP  RH WIND       PRES   REMARKS
SUPERIOR ARPT  CLOUDY    67  67 100 NE5       29.91F FOG
ASHLAND        FOG       65  65 100 CALM      29.94S VSB 1/4
HAYWARD        LGT RAIN  68  67  96 CALM      29.96S FOG
SIREN          LGT RAIN  74  72  91 S6        29.93S
CUMBERLAND       N/A     70  70 100 CALM      29.95F FOG
RICE LAKE      FOG       69  68  96 CALM      29.95F VSB 1/4
CHETEK         MOCLDY   N/A N/A N/A CALM      29.95F FOG
LADYSMITH      MOCLDY    72  70  95 CALM      29.98S FOG
EAU CLAIRE     PTCLDY    73  71  93 CALM      29.93F
MENOMONIE      MOCLDY    72  71  96 SE3       29.94F FOG
NEW RICHMOND   CLOUDY    73  72  95 S3        29.94S
OSCEOLA        CLOUDY    74  74 100 CALM      29.95S
$$

WIZ003>005-009-010-017-018-020800-
NORTH CENTRAL WISCONSIN

CITY           SKY/WX    TMP DP  RH WIND       PRES   REMARKS
MANITOWISH WTR MOCLDY    63  63 100 CALM      29.98S FOG
ARBOR VITAE    MOCLDY    67  66  95 CALM      29.99S
WOODRUFF       MOCLDY    67  66  95 CALM      29.99S
RHINELANDER    PTCLDY    66  66 100 CALM      29.99F FOG
EAGLE RIVER    MOCLDY    63  63 100 CALM      29.99S FOG
LAND O LAKES   FOG       62  62 100 CALM      30.00S VSB 3/4
PHILLIPS       CLOUDY    69  69 100 CALM      29.98R
TOMAHAWK       CLOUDY    69  67  96 CALM      29.99S FOG
MEDFORD        PTCLDY    69  69 100 S3        29.99S FOG
MERRILL        FOG       66  66 100 CALM      29.99S VSB 1/2
$$

WIZ029-030-035-036-043>047-020800-
CENTRAL WISCONSIN

CITY           SKY/WX    TMP DP  RH WIND       PRES   REMARKS
WAUSAU         PTCLDY    72  71  97 CALM      29.97S FOG
MOSINEE        PTCLDY    70  70 100 S3        29.99F FOG
MARSHFIELD     FOG       72  68  87 SW5       29.99S VSB 1/2
STEVENS POINT  CLEAR     69  69  98 CALM      29.99S FOG
WAUPACA        CLEAR     71  71  98 CALM      29.98S FOG
WAUTOMA        PTCLDY    69  69 100 CALM      29.99S
WISC RAPIDS    CLEAR     72  69  90 SW6       29.99F
CAMP DOUGLAS   FOG       66  66 100 E2        29.98S VSB<1/4
$$

WIZ011>013-019>022-031-037>040-048>050-020800-
NORTHEAST WISCONSIN

CITY           SKY/WX    TMP DP  RH WIND       PRES   REMARKS
ANTIGO           N/A     68  68 100 CALM      30.00S FOG
SHAWANO        CLEAR     73  71  91 CALM      29.97S
OCONTO         CLEAR     67  67 100 CALM      29.94F
STURGEON BAY   CLEAR     73  70  88 SW6       29.97F
GREEN BAY      CLEAR     70  68  93 CALM      29.96F FOG
MANITOWOC      CLEAR     63  61  93 MISG      29.97F
APPLETON       CLEAR     72  70  94 CALM      29.96F FOG
CLINTONVILLE   CLEAR     72  70  94 CALM      29.97S FOG
OSHKOSH        PTCLDY    73  70  90 S6        29.97F FOG
$$

WIZ032>034-041-042-053>061-020800-
SOUTHWEST WISCONSIN

CITY           SKY/WX    TMP DP  RH WIND       PRES   REMARKS
LA CROSSE      MOCLDY    77  73  87 S7        29.95S
SPARTA         CLEAR     69  67  96 CALM      29.98S
VIROQUA          N/A     73  73 100 SW7       30.00S
BOSCOBEL       CLEAR     72  70  93 SW3       29.98F FOG
PRAIRIE DU CHI CLEAR     75  68  79 CALM      29.98S
PLATTEVILLE    CLEAR     71  69  94 S5        30.01S
$$

WIZ056-057-062-063-064-067-068-020800-
SOUTH CENTRAL WISCONSIN

CITY           SKY/WX    TMP DP  RH WIND       PRES   REMARKS
REEDSBURG      PTCLDY    75  72  89 CALM      29.98S
BARABOO/DELLS  PTCLDY    74  69  85 CALM      29.99S
LONE ROCK      PTCLDY    71  68  90 CALM      29.99S
MINERAL POINT  PTCLDY    73  70  88 SW5       30.02S
MADISON        CLEAR     76  70  82 SW6       29.99S
MIDDLETON      CLEAR     76  69  80 SW5       30.00S
WATERTOWN      CLEAR     69  69 100 CALM      30.00S FOG
MONROE         PTCLDY    72  68  88 SW9       30.01F
JANESVILLE     PTCLDY    72  70  94 S6        30.00F
$$

WIZ051-052-058>065-066-070>072-020800-
SOUTHEAST WISCONSIN

CITY           SKY/WX    TMP DP  RH WIND       PRES   REMARKS
MILWAUKEE      PTCLDY    75  70  84 SW8       30.00S
WAUKESHA       CLEAR     70  68  94 CALM      30.02S
MILWAUKEE/TIMM PTCLDY    73  66  78 SW6       30.01S
RACINE         PTCLDY    76  70  82 SW7       30.02S
BURLINGTON     CLEAR     66  65  97 CALM      30.01F FOG
KENOSHA        CLEAR     74  70  87 SW8       30.01F
FOND DU LAC    MOCLDY    73  71  93 S6        29.98F
SHEBOYGAN      CLEAR     71  69  93 SW5       29.98F
WEST BEND      CLEAR     72  68  88 CALM      30.00S
JUNEAU         CLEAR     71  69  95 SE3       30.01F FOG
$$

LSZ147-162-020800-
LAKE SUPERIOR

STATION/POSITION TIME  TEMP    WIND        PRES    WAVE
                       AIR SEA DIR/SP/G            HT/PER
                 (UTC) (F)     (DEG/KT/KT) (MB)    (FT/S)
W MID LAKE BUOY  0650   58 56   70/  4/  4 1013.7S   0
DEVILS ISLAND    0700   68      70/  2/  3 1013.5R
PORT WING        0640   67      CALM  /  4 1013.2F
SAXON HARBOR     0600   66        CALM     1013.2
$$

LMZ867-665-643>646-020800-
LAKE MICHIGAN

STATION/POSITION TIME  TEMP    WIND        PRES    WAVE
                       AIR SEA DIR/SP/G            HT/PER
                 (UTC) (F)     (DEG/KT/KT) (MB)    (FT/S)
CHAMBERS ISLAND  0600   73     200/  5/  7 1014.2S
S GREEN BAY BUOY 0630   70 67  200/  6/  6 1015.7F
N MID LAKE BUOY  0650   66 65  200/ 10/ 12 1013.6F   2/ 4
NORTHPORT PIER   0600   67      CALM  /  2 1014.2F
SISTER BAY       0619   71        CALM       N/A
ALGOMA LAKESHORE 0614             CALM       N/A
KEWAUNEE LAKESHO 0600   53     160/  5/  5 1013.8F
SHEBOYGAN LAKESH 0700   69     170/  5/  5 1015.0F
PORT WASHINGTON  0600   59     200/  3/  4 1016.3S
ATWATER BUOY     0700   57 50  140/  4/  6 1016.9F
MILWAUKEE LAKESH 0610   78     230/  7/  9   N/A
S MID LAKE BUOY  0650   72 70  190/ 10/ 10 1015.6F
KENOSHA   LAKESH 0700   78     230/  7/ 11 1015.6F
$$

TC  - TEMPERATURE IN CELSIUS
VSB - VISIBILITY IN STATUTE MILES
WCI - WIND CHILL INDEX
HX  - HEAT INDEX




USA.gov is the U.S. government's official web portal to all federal, state and local government web resources and services.